Wind_Speed
49 48 49 51 55 59 63 65 65 62 57 53 52 52 50 47 43 40 39 38 38 38 38 38 38 39 40 42 43 45 47 48 49 49 48 46 46 47 47 47 46 45 45 46 47 48 48 47 47 46 46 44 40 36 34 34 34 33 33 33 33 35 36 38 39 39 40 39 37 35 34 33 32 32 32 33 33 34 35 35 36 35 35 34 34 36
49 48 48 50 52 56 60 63 65 64 59 54 52 53 54 52 50 46 43 40 38 37 37 37 37 38 39 40 41 43 44 46 48 49 49 48 49 49 50 49 47 44 43 43 43 45 45 46 45 45 46 44 40 35 33 33 33 33 33 33 34 35 37 38 39 40 40 39 37 35 33 32 32 33 34 35 35 36 36 37 38 37 36 35 35 37
49 48 48 48 50 53 57 60 64 64 60 54 52 53 54 54 54 51 46 42 39 37 37 36 36 36 37 38 38 40 41 42 44 46 47 48 49 50 51 50 48 45 43 42 42 42 43 43 44 44 45 43 39 35 33 33 33 34 34 34 34 35 36 37 38 38 38 38 36 34 33 33 34 36 37 37 38 38 39 40 40 39 37 36 36 37
48 48 47 46 47 50 54 57 61 62 59 54 51 50 50 51 52 50 45 41 38 38 37 36 36 36 36 36 36 36 37 37 39 40 42 45 47 49 50 50 49 47 45 44 43 42 42 43 43 44 45 43 40 37 34 34 35 35 35 33 33 33 35 36 37 37 37 36 35 34 33 34 36 37 38 39 40 41 42 42 42 40 38 37 37 37
48 48 46 45 45 47 50 53 56 58 57 54 52 49 47 47 46 45 41 38 37 37 37 37 36 36 36 35 35 34 34 34 35 37 39 41 43 46 48 48 48 47 46 46 45 44 44 44 45 46 45 43 40 37 35 36 37 36 34 32 32 35 36 37 37 36 36 36 35 35 35 36 38 39 40 41 42 43 44 44 42 41 40 39 39 38
46 47 47 46 45 45 46 49 53 55 55 54 53 51 48 47 45 42 40 38 38 38 38 37 37 36 36 36 35 34 34 35 36 38 39 40 41 43 44 45 45 46 45 45 44 44 44 45 45 45 44 41 37 36 36 37 38 36 34 33 34 37 38 39 38 38 38 38 38 38 39 39 40 41 42 43 44 44 44 43 42 41 41 41 40 40
43 45 47 47 47 46 46 47 50 53 55 55 54 52 51 49 47 45 42 41 40 40 40 39 38 37 36 36 36 36 37 38 39 40 40 40 41 41 42 42 43 43 42 41 41 41 41 41 41 41 39 37 35 35 36 38 38 37 35 35 36 39 40 41 41 41 41 41 41 41 42 42 43 43 44 45 45 44 44 43 42 42 42 42 42 42
40 42 45 47 48 48 48 47 48 51 54 55 55 54 53 52 50 48 46 45 44 44 43 42 41 39 38 38 38 38 39 40 41 42 42 41 41 41 41 41 41 40 39 39 38 39 39 39 38 36 35 35 35 36 37 38 38 38 37 37 39 41 43 44 44 44 44 43 43 43 43 43 43 44 44 45 45 44 43 42 42 42 42 42 42 42
39 40 42 43 45 46 48 48 48 49 51 54 56 57 57 56 54 52 50 50 49 49 47 46 44 42 40 40 40 40 41 42 42 43 43 43 43 42 42 41 40 39 39 39 39 40 40 39 37 36 36 36 36 37 38 38 39 39 38 39 40 42 44 45 46 45 44 44 43 43 43 42 42 43 44 45 44 43 42 42 42 42 42 42 42 42
37 38 39 39 40 41 43 45 46 47 48 50 53 56 59 59 58 57 54 53 52 52 51 49 47 44 43 42 42 42 42 43 43 44 44 44 44 44 43 42 41 40 41 41 42 42 42 41 39 37 37 38 38 39 39 39 40 40 40 40 41 43 45 46 46 45 44 43 43 43 42 41 41 42 44 44 43 41 41 41 41 41 41 41 41 41
37 37 37 37 37 38 38 39 41 42 44 46 49 52 56 59 60 59 58 56 55 53 52 51 49 47 46 45 44 44 44 44 44 45 46 46 46 46 45 45 44 44 44 45 46 46 45 43 41 39 39 40 40 40 41 41 41 41 41 41 42 43 45 45 45 44 43 42 42 42 42 41 42 43 43 43 41 40 40 40 40 40 40 40 40 40
39 38 37 37 37 37 37 37 37 38 40 42 45 48 51 54 56 57 57 58 58 56 54 52 50 49 48 47 46 45 45 45 45 46 46 47 47 47 47 47 48 48 48 48 49 49 48 45 42 41 41 41 42 42 42 42 42 42 42 42 42 43 43 44 43 43 42 42 42 42 41 41 42 42 42 41 40 39 39 39 38 38 38 38 39 41
43 41 40 39 38 38 37 37 37 37 38 40 42 44 46 48 50 52 53 56 58 60 59 56 53 51 50 49 48 47 47 46 46 46 46 47 47 48 48 49 50 50 51 51 52 51 49 45 43 42 42 42 43 43 43 43 42 42 42 42 42 42 43 43 42 42 42 41 41 41 41 41 41 41 41 40 39 39 38 38 37 37 37 38 41 43
46 44 43 42 41 40 39 38 38 38 38 39 39 40 41 43 44 46 49 52 57 61 63 62 59 56 53 52 51 50 48 47 47 46 46 46 47 48 49 50 51 51 51 52 51 50 47 45 43 43 43 43 43 43 43 42 42 42 42 42 42 43 43 43 43 42 42 41 41 40 40 40 40 40 39 39 38 38 37 36 35 35 37 40 43 45
47 47 46 46 45 43 42 40 39 38 38 38 37 37 38 39 41 43 46 50 55 60 64 66 65 62 58 56 54 52 50 49 48 47 46 46 47 47 48 49 50 51 51 51 50 48 45 44 43 43 43 43 42 42 42 42 42 42 43 43 43 44 44 44 43 43 43 42 41 40 40 40 40 39 39 39 38 37 35 33 34 36 39 42 45 46
47 48 48 49 48 46 44 42 40 38 38 37 36 36 37 38 40 42 44 48 53 58 63 67 68 67 63 60 57 54 52 50 49 48 47 47 46 47 47 47 48 49 49 49 47 46 44 42 42 41 42 42 42 42 42 42 43 43 44 44 45 45 45 45 45 45 44 43 43 42 42 41 40 40 39 39 37 35 32 33 35 38 41 44 45 46
45 47 49 50 50 49 47 45 42 40 38 36 36 37 37 37 38 40 42 46 51 56 61 66 68 68 66 63 60 57 54 51 50 49 48 47 47 47 46 46 46 47 47 46 45 44 42 41 40 40 40 41 41 41 42 43 44 44 45 46 46 46 46 47 47 46 46 45 45 45 45 44 42 41 40 38 34 32 31 34 37 40 43 44 45 46
44 46 48 50 50 50 49 47 45 42 39 37 36 36 37 37 37 38 41 45 50 54 59 63 66 67 66 63 60 58 54 51 50 49 48 48 47 47 46 46 46 46 45 45 44 43 42 41 40 40 40 41 41 41 42 43 44 45 46 46 47 47 48 48 48 48 47 47 47 47 47 45 43 41 38 34 31 30 32 35 38 41 42 44 44 44
44 46 47 49 50 50 50 49 47 45 42 38 36 35 35 36 36 37 39 43 48 52 56 60 62 64 64 63 60 57 54 51 50 49 48 48 48 47 47 46 46 46 45 45 44 44 43 43 42 42 41 42 42 43 43 44 45 46 46 47 47 48 48 47 48 48 48 48 49 49 48 45 42 38 33 31 30 31 34 37 39 41 42 42 42 42
43 44 46 47 49 49 49 49 48 47 44 41 38 36 35 36 36 36 38 41 45 49 53 56 59 61 62 61 60 57 54 51 49 49 48 48 48 48 48 47 47 47 46 46 45 45 45 45 45 44 43 43 43 44 44 44 45 46 46 47 47 47 47 47 47 48 48 49 49 49 47 44 39 34 31 30 31 33 35 38 39 40 40 41 41 40
42 44 45 46 47 47 48 49 48 47 45 43 40 38 37 37 37 37 37 39 42 46 50 54 57 59 60 61 60 58 55 52 50 49 48 48 48 49 49 48 48 48 48 47 47 47 47 47 47 47 46 45 45 44 44 44 44 45 46 47 47 47 47 47 47 47 48 48 48 46 44 40 35 31 29 29 31 34 36 38 39 40 40 41 41 41
42 43 45 45 45 45 46 47 47 47 47 45 43 41 40 39 38 38 38 38 39 41 45 50 53 56 59 62 62 61 58 55 52 50 48 48 48 49 49 48 48 48 49 49 49 49 49 49 49 49 49 48 47 46 45 44 44 44 45 46 46 46 46 46 46 46 45 44 43 40 37 34 31 30 30 31 33 35 37 39 40 41 41 42 42 42
39 42 43 44 44 44 44 44 45 46 47 46 45 44 42 41 41 41 40 39 38 38 39 42 46 50 55 60 62 63 62 59 56 53 50 49 48 48 48 47 47 47 48 49 50 50 51 51 51 51 51 51 51 50 49 48 47 46 46 46 45 45 45 44 43 42 40 38 35 33 31 30 30 31 32 34 36 38 40 41 41 41 41 41 41 40
35 37 39 41 42 42 42 42 43 44 46 46 46 45 44 43 43 43 43 42 40 39 38 38 40 43 49 54 58 61 63 63 61 57 54 51 50 49 48 47 46 46 46 47 48 50 51 52 52 53 54 54 55 55 55 54 52 51 50 48 47 46 45 43 41 39 36 33 31 30 30 31 33 34 36 37 39 40 40 39 39 38 37 37 37 37
31 33 35 37 38 39 39 40 41 43 44 45 45 46 45 45 45 45 45 45 44 42 41 39 38 39 42 46 50 54 59 62 63 62 58 54 52 50 48 47 45 44 43 44 45 46 48 50 51 53 54 56 57 58 59 58 57 56 53 51 48 46 44 43 41 39 37 34 33 33 34 35 36 37 38 39 39 38 37 36 36 35 35 35 35 35
28 30 31 32 33 34 35 36 38 40 42 44 45 45 46 46 46 46 46 46 46 46 44 43 41 41 41 42 44 47 52 57 61 63 62 58 55 52 50 47 45 43 42 42 42 43 45 46 48 50 53 55 57 58 59 59 59 57 54 51 48 46 44 43 41 40 39 38 37 36 37 38 38 38 38 38 37 36 35 35 35 35 36 36 36 37
27 28 29 29 29 29 29 30 32 35 38 41 43 45 46 46 46 46 47 48 48 48 47 47 46 45 44 42 42 44 47 51 56 61 63 62 59 55 51 48 45 43 42 42 43 43 43 44 46 48 50 52 54 56 57 58 57 56 53 50 47 46 45 43 42 42 41 40 39 38 38 39 39 39 38 37 37 36 36 37 37 38 39 39 39 39
25 26 28 28 27 26 25 24 26 28 32 36 39 42 44 45 45 46 47 48 48 49 49 50 50 48 46 45 44 43 44 46 51 57 62 63 62 59 54 49 46 45 45 45 45 44 44 44 46 47 48 49 51 52 54 54 55 54 52 50 48 47 46 45 44 42 41 40 39 39 39 40 41 40 40 39 39 39 39 40 41 41 42 41 41 39
23 25 26 27 27 26 23 22 22 23 26 29 33 37 40 42 44 45 46 46 47 48 50 51 51 50 49 47 45 43 43 44 48 52 57 61 63 62 58 53 49 47 47 47 47 46 45 46 46 47 47 48 49 49 51 51 52 51 50 49 48 47 47 45 44 42 40 39 39 40 42 43 44 44 44 43 43 43 43 43 43 43 43 41 39 37
21 22 24 26 26 26 24 22 20 20 21 23 26 30 34 37 40 42 44 44 45 47 49 50 51 51 50 48 46 44 43 44 46 49 52 57 61 63 61 58 54 51 49 49 49 48 48 47 47 47 47 47 47 47 47 48 48 48 48 48 47 47 46 45 43 41 39 39 41 43 45 46 47 48 48 47 47 46 46 45 44 43 42 39 36 32
19 20 22 24 25 25 24 22 20 19 19 19 21 24 27 31 34 38 40 41 43 45 47 49 50 50 50 49 46 44 44 44 45 46 48 52 56 60 62 61 58 55 52 51 51 51 49 48 48 47 47 46 45 45 45 45 46 46 47 47 47 47 46 44 42 40 40 41 43 46 48 50 50 51 50 50 49 48 46 45 43 41 39 35 32 28
17 18 20 22 23 24 24 23 21 19 18 18 18 19 21 24 28 31 34 37 39 41 43 46 47 49 49 49 48 46 45 44 44 45 46 48 51 55 58 60 60 58 55 53 53 52 51 50 49 48 47 46 44 44 44 44 45 46 47 47 48 47 46 44 42 42 43 45 47 49 51 52 52 52 52 50 49 47 45 43 40 37 34 31 28 26
17 17 19 21 22 23 24 23 21 20 18 17 17 17 18 19 22 25 28 31 34 36 39 41 44 46 47 48 48 47 46 45 44 44 45 45 47 50 53 56 58 58 56 55 54 53 52 51 50 50 48 46 45 44 45 46 46 47 48 48 48 48 47 45 44 44 45 48 50 52 53 53 53 53 52 50 48 45 42 39 36 33 29 27 25 24
17 17 19 20 22 23 23 23 21 20 19 17 17 16 16 16 17 19 22 25 28 30 33 36 39 42 44 46 47 47 47 46 46 45 45 44 45 46 49 52 54 55 55 55 55 54 53 53 52 51 49 48 47 46 47 47 48 49 49 49 49 49 48 47 46 47 48 50 52 54 55 54 54 52 50 48 44 41 38 34 31 29 26 24 24 24
19 18 19 21 22 23 23 22 21 20 19 18 17 16 15 14 15 15 17 19 21 24 27 30 33 36 40 42 44 46 47 47 47 46 46 45 45 45 46 48 50 52 53 54 55 54 54 53 53 52 50 49 48 48 48 49 49 50 51 51 51 51 50 50 50 50 51 52 54 55 55 54 52 50 46 43 39 36 33 30 28 26 25 24 24 24
21 20 20 22 23 23 23 22 21 20 19 18 17 16 15 14 13 13 13 14 16 18 21 24 27 31 34 37 41 43 46 47 47 47 47 46 45 44 43 44 46 47 48 51 52 53 52 52 51 50 49 48 48 48 49 50 51 52 54 54 54 54 53 53 53 53 53 54 54 54 53 51 48 44 41 37 34 31 29 27 26 25 25 25 25 24
25 23 23 23 24 24 24 22 21 19 19 18 18 16 15 15 14 13 12 12 12 13 15 17 20 24 28 32 35 39 42 45 46 47 47 47 45 43 41 40 41 42 44 47 49 49 48 47 47 47 47 46 46 47 48 50 52 54 56 56 56 55 55 55 55 54 54 53 51 49 47 44 41 38 35 32 30 28 27 26 26 25 25 25 25 25
31 28 26 25 25 25 24 23 20 19 19 19 18 17 16 15 14 14 13 12 11 11 12 13 15 18 21 25 29 33 37 41 43 45 46 46 44 41 38 37 38 39 41 44 45 45 44 43 43 43 43 43 44 45 46 49 52 55 57 57 57 56 55 55 54 52 50 48 46 43 40 38 35 33 31 28 27 26 26 26 26 26 26 26 25 25
34 32 30 28 27 26 25 23 21 19 18 19 19 18 17 16 15 14 14 13 12 12 11 11 12 13 15 19 22 27 31 35 38 41 42 43 42 40 38 36 36 38 40 41 42 41 40 39 39 38 39 40 42 44 47 49 52 55 57 58 57 56 54 52 49 47 45 42 39 37 35 33 31 29 27 26 25 25 26 27 27 27 26 25 24 24
35 35 33 31 29 27 26 24 23 20 19 19 19 19 19 18 16 15 14 14 14 13 13 12 11 11 12 14 16 20 23 27 31 34 37 38 38 38 37 36 36 36 38 39 39 38 37 36 36 35 36 38 41 45 49 52 53 55 57 57 56 53 50 47 44 41 39 37 35 32 31 29 27 26 26 26 26 26 27 27 27 26 26 25 24 24
35 35 35 33 31 29 27 26 24 22 21 20 20 20 20 19 18 16 14 14 14 15 15 14 13 13 12 12 13 14 17 19 22 26 29 32 34 35 36 36 35 35 36 36 37 36 35 34 34 34 35 38 42 46 50 53 54 55 56 54 52 49 46 43 40 38 35 33 32 30 29 27 26 26 26 27 27 27 27 26 26 25 25 24 24 23
33 34 35 34 33 31 29 27 26 24 23 22 21 21 21 20 19 17 15 14 14 14 15 15 15 14 14 14 13 13 14 15 16 19 22 25 29 31 32 33 34 34 34 34 34 34 33 33 33 34 36 39 43 48 51 53 53 53 51 49 47 44 41 39 38 36 33 31 30 29 28 27 27 28 28 28 28 27 26 26 25 25 24 23 23 23
31 32 33 34 33 32 30 29 28 26 25 24 23 23 22 21 20 18 17 15 14 14 14 15 15 16 15 15 15 14 14 14 14 15 17 19 22 25 27 29 30 31 31 32 32 32 32 32 32 33 36 40 43 47 50 50 50 48 46 44 41 38 36 35 34 33 31 30 29 29 28 29 29 29 29 28 27 26 25 24 24 24 23 23 22 22
29 30 32 33 33 33 32 31 29 28 27 26 25 24 24 23 22 20 19 17 16 15 15 15 15 16 16 16 16 16 16 15 15 15 15 16 17 19 22 24 25 26 27 27 27 28 28 29 31 33 36 39 42 45 47 47 45 43 41 39 37 35 34 33 31 30 30 30 30 30 30 30 29 29 28 27 26 25 24 24 23 23 23 23 22 22
28 29 30 31 32 33 33 32 31 30 29 28 27 26 25 24 23 22 21 19 18 17 16 16 16 16 17 17 17 17 17 17 17 16 16 15 15 16 17 19 21 22 23 24 24 24 25 26 28 32 35 38 41 43 44 43 42 40 39 37 35 34 34 33 32 31 31 31 31 30 30 29 28 27 27 26 25 25 24 24 24 23 23 23 23 23
27 28 29 30 31 32 33 33 33 32 31 30 29 28 27 26 25 24 23 21 20 19 18 18 17 17 17 17 18 18 18 18 18 18 17 17 17 16 16 16 17 19 20 22 23 23 24 25 28 31 35 38 41 42 43 42 41 39 38 36 35 34 34 33 32 32 31 31 30 29 28 27 27 26 26 25 25 24 25 25 24 24 24 24 25 25
26 27 28 29 30 31 33 33 33 33 33 32 31 30 29 28 27 26 24 23 22 21 21 20 19 19 18 18 18 18 19 19 19 18 18 18 18 18 17 17 16 17 18 20 21 23 24 26 28 31 34 37 39 40 41 41 41 40 38 37 36 35 34 33 32 31 30 29 28 28 27 26 26 26 25 25 25 25 25 25 26 26 26 26 27 27
26 26 27 28 29 30 32 33 33 34 34 33 33 32 31 30 29 27 26 25 24 23 23 22 21 21 20 19 19 19 20 20 19 19 19 19 19 19 19 18 18 18 18 19 20 21 23 25 27 29 32 34 35 36 36 37 37 37 37 36 34 33 32 30 29 28 27 27 27 27 27 26 26 26 26 25 26 26 26 27 27 28 28 28 29 29
26 26 27 27 28 29 30 31 32 33 34 34 34 33 32 31 30 29 28 27 26 25 24 24 23 22 21 20 20 20 20 20 20 20 20 20 20 20 20 20 20 20 20 20 21 22 23 24 26 27 28 30 30 31 31 31 31 32 31 31 30 29 28 27 27 26 26 27 27 27 28 28 28 27 27 27 27 27 28 28 29 29 30 30 31 31
26 26 26 27 27 28 29 30 31 32 33 34 34 34 33 32 31 31 30 29 28 27 26 26 25 24 23 22 21 21 21 21 21 21 21 21 21 21 21 21 21 22 22 23 23 24 25 25 26 26 26 26 27 27 28 28 28 28 27 27 27 26 26 26 26 27 27 28 28 29 29 29 29 29 29 29 29 29 30 30 31 31 32 32 33 33
25 26 26 26 26 27 27 28 29 30 32 33 33 34 33 33 32 31 31 30 29 29 28 28 27 26 26 25 24 23 23 22 22 22 22 22 22 22 22 23 23 24 24 25 26 26 26 27 27 27 27 26 26 26 26 27 27 27 27 27 27 27 27 27 28 28 29 29 30 30 30 30 30 30 30 31 31 31 32 32 32 33 33 34 34 34
Wind_Direction
245 244 242 240 237 233 229 224 220 220 224 230 233 231 228 225 223 221 219 219 219 220 222 224 226 228 229 230 230 231 232 232 231 230 230 231 233 235 237 239 239 240 240 241 242 242 240 237 233 231 230 230 229 229 229 230 232 235 239 241 244 247 249 251 252 254 254 254 252 250 248 247 248 250 253 257 261 264 267 269 269 267 265 266 270 276
245 244 243 242 239 235 231 227 223 222 224 231 235 234 232 231 230 229 226 223 221 221 222 224 226 228 230 231 231 231 232 232 231 231 230 231 233 236 239 242 243 242 241 240 240 240 238 236 234 231 231 232 234 235 234 233 234 236 238 240 243 245 248 250 251 253 254 254 254 253 252 252 253 255 257 259 262 265 267 268 267 265 264 266 270 275
245 243 243 244 242 238 234 230 226 223 225 231 235 235 234 235 235 234 231 228 225 224 223 224 226 228 230 231 232 232 232 232 232 231 231 232 234 237 240 244 246 247 244 242 240 238 237 236 234 234 235 238 242 243 240 236 235 235 236 238 241 244 247 250 252 254 255 256 257 257 257 258 259 260 260 261 262 263 264 264 264 264 264 265 268 272
244 243 243 245 244 241 237 233 229 226 226 230 232 232 232 233 233 233 231 229 227 225 224 223 224 225 227 229 230 231 231 232 232 232 232 233 235 238 242 245 248 249 249 246 243 240 239 237 237 238 241 245 248 247 241 236 234 234 234 235 236 239 243 247 250 254 256 258 259 260 260 261 261 261 260 259 260 261 262 263 264 264 265 265 267 269
243 242 242 244 244 242 239 235 231 228 228 229 228 226 225 225 226 225 224 223 223 223 223 222 222 222 223 225 227 229 230 230 231 231 232 234 237 240 242 245 247 249 250 249 248 246 244 243 243 244 247 250 250 246 238 233 232 232 231 229 230 233 237 240 244 247 251 254 255 256 257 257 257 257 257 257 258 260 262 264 265 266 267 267 267 268
242 242 242 242 242 241 239 235 232 229 228 228 227 223 220 218 217 216 217 217 218 219 220 221 221 220 221 222 224 226 228 229 229 229 231 235 239 241 242 243 245 247 248 249 249 249 249 248 249 249 250 250 247 240 234 231 230 230 227 224 226 230 234 236 238 240 243 246 248 250 251 252 253 254 255 256 258 260 263 265 267 268 268 269 269 269
239 240 241 241 241 240 238 235 232 230 229 230 228 224 220 217 215 214 215 215 215 215 217 218 219 219 220 221 223 225 226 227 228 229 231 236 239 241 241 242 243 245 247 248 249 250 250 251 251 251 249 246 240 234 231 230 230 228 225 222 224 230 234 236 237 239 241 243 245 246 248 250 252 253 255 257 259 261 263 266 267 268 269 269 270 270
236 237 239 240 240 240 239 237 234 233 232 232 231 228 224 221 220 220 221 220 219 217 216 217 218 219 220 222 224 225 226 227 228 230 233 236 238 238 239 240 242 244 246 247 248 249 250 251 250 248 245 240 235 232 231 231 230 228 225 222 224 229 234 237 239 240 242 244 246 248 250 252 254 256 258 260 261 263 264 266 267 268 269 270 270 271
235 235 236 238 239 240 240 239 238 237 237 237 236 234 231 230 230 230 231 230 227 224 221 219 219 220 221 223 225 226 227 228 229 231 234 236 237 237 238 239 241 243 245 246 247 248 250 249 248 245 241 238 235 233 232 232 232 230 227 224 224 229 234 237 240 243 245 247 249 251 252 254 256 258 260 262 263 264 265 266 267 268 269 270 271 272
236 235 235 236 237 238 238 238 238 239 240 240 240 240 239 239 239 240 240 238 234 230 226 224 222 222 223 224 226 227 228 229 230 232 235 236 237 238 238 238 239 240 242 244 245 247 248 248 246 242 239 237 236 235 234 234 233 232 230 228 227 229 233 238 241 244 247 248 250 251 252 253 254 257 259 261 263 264 265 266 267 268 269 270 271 272
240 238 236 236 236 236 236 236 236 236 238 240 241 242 243 243 244 245 245 243 240 235 231 228 226 225 224 225 226 227 227 229 230 232 233 235 236 237 237 237 236 236 238 241 243 245 246 245 243 240 238 236 235 235 234 234 234 234 233 232 231 231 234 237 241 244 246 247 249 250 251 251 252 254 257 259 262 263 265 266 267 268 269 271 272 274
244 242 241 239 238 238 237 235 234 234 234 236 238 241 242 244 244 245 245 245 242 238 234 231 229 227 226 226 226 227 227 228 230 231 231 232 234 235 236 236 234 233 234 237 240 242 243 242 240 238 236 235 234 234 234 234 235 235 235 235 235 235 237 239 241 243 245 246 247 249 250 251 252 254 256 258 261 262 264 265 266 268 270 273 275 276
246 245 244 244 243 241 240 238 237 235 235 235 236 238 241 243 244 244 244 245 243 241 237 233 230 229 228 227 226 226 227 228 229 230 230 230 232 233 234 235 234 233 233 234 236 238 240 239 238 236 235 234 234 234 234 235 236 236 237 238 238 239 240 241 242 243 244 245 247 248 250 252 253 255 257 259 260 262 263 265 267 270 273 276 276 274
247 246 246 246 246 245 244 242 240 238 238 237 238 239 242 244 245 245 244 244 244 241 238 234 231 229 228 227 226 226 227 228 229 229 229 229 230 232 233 235 235 235 235 235 236 237 237 237 236 235 235 234 234 234 235 236 237 238 238 239 240 240 241 242 243 244 244 245 246 248 250 252 254 256 258 259 260 261 264 267 270 273 275 275 273 270
250 248 248 248 248 248 247 246 244 242 242 241 240 241 242 244 245 245 245 246 244 242 238 234 232 230 228 227 226 225 226 227 228 229 229 229 230 231 233 234 235 236 236 236 236 237 236 235 234 234 234 234 235 235 236 236 237 238 239 240 240 241 242 243 244 244 245 246 247 247 249 250 251 252 254 255 257 260 264 268 271 272 271 270 268 267
251 251 250 249 249 249 248 248 247 246 244 243 241 241 241 243 244 245 245 245 244 241 238 234 232 231 229 228 226 225 225 226 227 228 228 229 229 231 233 234 235 236 236 236 235 235 235 235 235 235 235 235 235 236 237 238 239 239 240 241 241 242 243 244 245 245 246 246 247 246 246 245 246 247 248 251 255 259 263 266 267 266 266 265 265 265
251 252 251 251 250 250 249 249 248 247 245 243 241 240 240 242 243 244 245 244 243 241 238 236 234 232 230 228 227 225 225 225 226 227 228 229 229 231 232 234 235 236 235 235 234 233 233 234 235 237 238 238 238 238 239 240 241 242 242 243 243 244 244 245 245 246 246 246 246 246 245 244 244 245 247 250 254 258 261 262 262 262 262 263 264 264
249 250 251 251 251 250 250 250 249 247 245 242 240 239 239 239 241 243 244 243 242 240 239 237 236 234 231 228 226 226 225 225 226 227 227 228 229 230 231 233 234 235 235 234 233 233 232 232 233 236 239 240 241 242 242 243 244 245 245 245 246 246 246 246 245 245 246 246 246 246 246 246 246 248 250 252 254 256 257 258 259 259 260 261 263 264
246 247 248 249 249 250 250 250 249 248 245 243 240 238 238 238 239 240 242 242 241 240 239 238 236 234 231 229 227 226 225 225 226 226 226 227 229 230 231 232 233 234 234 233 233 233 232 231 231 233 236 239 241 243 244 245 246 246 246 247 247 247 247 247 246 246 245 245 246 246 247 248 249 250 251 252 253 254 255 256 256 258 259 260 262 264
243 244 245 246 247 247 248 249 249 248 246 243 241 238 237 236 236 237 239 240 241 241 240 239 236 233 231 229 227 226 225 225 225 226 226 226 228 229 230 231 232 233 233 233 233 233 233 232 231 232 233 236 239 242 243 244 245 245 244 245 245 246 246 246 245 245 245 245 246 248 249 250 251 251 251 251 251 252 253 255 256 257 259 261 263 265
240 240 241 242 243 244 245 246 247 247 246 244 241 239 237 235 234 234 235 237 239 240 240 239 237 234 231 229 228 227 226 226 226 226 226 226 227 228 230 231 232 233 233 233 233 234 234 234 233 233 233 235 237 240 241 241 241 240 240 240 241 243 243 244 244 244 245 246 248 249 251 252 252 251 249 249 249 251 252 254 256 257 259 261 263 266
240 239 238 238 238 239 241 243 244 245 245 244 242 240 238 235 234 232 232 233 235 237 238 239 238 236 234 232 230 229 228 227 227 227 227 226 226 228 229 230 232 234 234 234 234 234 234 235 235 235 234 234 236 237 238 238 237 236 236 237 239 240 242 243 243 245 246 248 250 251 252 251 250 248 246 246 247 249 251 253 256 258 260 262 263 265
241 240 239 238 237 237 238 239 241 243 243 243 242 241 239 237 234 232 231 231 231 233 235 237 238 238 237 235 234 232 230 229 229 228 228 226 225 226 227 229 231 234 236 237 237 236 236 236 236 236 236 235 236 236 237 237 237 237 237 238 240 241 242 243 244 245 247 249 250 250 250 248 246 244 244 245 247 249 253 256 259 261 262 264 265 265
243 242 242 240 239 237 237 237 239 241 242 243 243 243 242 239 236 233 231 230 229 229 230 232 235 237 238 238 237 235 234 232 231 230 229 228 226 225 225 227 230 234 237 238 238 238 238 237 237 237 237 237 237 237 238 239 240 241 241 242 243 244 244 245 245 246 247 247 247 246 245 244 243 244 245 247 250 253 257 260 263 264 265 265 266 266
246 246 245 244 243 241 239 238 238 239 241 242 243 243 243 242 239 235 232 230 229 228 228 228 230 233 235 237 238 238 236 235 233 231 230 229 227 226 226 228 232 235 238 239 239 239 239 239 239 239 239 238 238 239 239 240 242 243 244 245 245 246 246 247 248 249 249 248 246 244 243 243 244 246 249 251 254 257 260 262 263 264 264 264 265 264
248 247 247 247 247 246 244 241 240 240 241 242 243 243 243 243 241 238 234 231 229 228 227 227 228 229 231 233 236 237 237 236 234 232 231 229 228 227 228 230 234 237 239 239 238 239 239 240 240 240 240 240 240 240 241 242 243 244 245 246 246 246 247 248 250 251 252 251 249 246 245 245 247 250 253 255 257 258 259 260 260 260 260 261 261 261
248 247 246 247 248 248 248 246 244 242 242 242 243 243 243 243 242 240 237 234 231 229 227 226 226 226 228 230 232 234 235 235 234 232 231 229 229 229 229 231 234 237 239 238 238 238 239 241 242 242 241 241 241 241 241 242 242 243 244 245 246 247 248 250 252 253 253 253 250 248 246 246 248 250 253 254 255 255 256 255 255 255 255 256 257 257
246 246 245 245 247 248 249 249 247 245 244 243 243 243 242 242 242 241 240 238 234 232 230 228 226 226 226 227 229 231 232 233 233 232 231 230 229 229 230 231 233 236 238 238 238 238 238 240 241 241 241 242 242 242 241 241 242 242 243 244 246 247 249 251 252 252 252 250 248 245 243 243 245 247 248 249 250 250 250 249 249 250 250 252 253 254
245 245 244 244 245 246 248 249 249 247 246 245 244 243 242 242 241 241 241 240 238 235 233 231 229 227 227 227 228 229 230 231 231 231 231 230 230 230 230 231 233 235 236 238 238 238 238 238 238 239 239 241 242 241 241 241 240 241 242 243 245 247 248 249 250 250 248 245 242 240 239 239 240 242 243 244 244 244 244 245 245 246 247 248 249 250
244 245 245 244 244 245 246 248 248 248 247 246 245 244 243 242 241 241 241 241 240 238 237 235 233 231 229 229 228 229 229 230 230 230 230 231 232 232 231 232 233 234 236 238 239 239 238 236 235 236 237 239 241 241 240 240 239 239 240 241 242 244 245 246 246 245 242 239 237 236 235 236 237 238 239 239 240 240 241 241 242 243 244 246 247 247
244 245 245 245 244 244 244 246 246 247 247 247 247 246 245 243 241 240 240 240 240 240 239 238 236 234 232 231 230 230 229 229 229 230 230 232 233 233 233 233 233 234 235 238 239 239 236 234 233 233 235 237 238 239 239 239 239 239 238 238 239 240 241 241 241 239 236 234 233 232 233 233 234 235 236 236 237 237 238 239 240 241 243 243 244 244
244 245 245 245 244 242 242 243 244 245 245 245 246 246 246 244 242 241 240 239 240 240 240 240 239 237 235 233 232 230 228 228 229 229 230 232 233 233 233 233 233 234 235 238 239 239 235 232 231 232 233 235 235 236 236 237 238 237 237 236 236 236 237 236 235 233 231 230 230 230 231 232 232 233 234 234 235 235 236 237 239 240 241 241 242 244
242 245 246 246 244 241 240 240 241 241 242 243 244 245 246 246 245 242 241 239 239 239 240 240 240 239 237 236 234 231 229 228 228 228 229 230 232 232 232 232 233 234 236 237 238 237 234 232 231 231 232 233 233 233 233 234 234 234 233 232 232 233 234 233 232 229 228 227 228 228 229 230 231 232 232 232 233 233 234 236 237 238 239 241 244 248
240 244 248 248 245 242 239 238 237 238 238 239 241 243 245 246 246 245 243 241 239 238 238 239 239 239 239 238 236 234 231 228 227 227 227 227 229 230 230 231 232 233 235 236 235 234 232 231 231 231 232 232 232 231 230 230 229 228 227 227 227 228 230 230 229 228 226 226 226 227 229 229 230 230 230 230 231 232 233 234 236 238 241 246 251 255
240 245 250 251 249 245 240 237 235 234 234 235 236 238 240 243 245 245 245 243 240 238 237 237 238 238 239 238 238 237 234 230 228 226 225 225 225 226 228 229 230 232 234 234 232 230 228 228 229 230 231 231 230 229 228 226 224 223 221 220 221 222 224 225 226 226 225 225 225 226 227 228 228 228 228 228 229 230 232 234 237 241 247 253 258 262
239 244 249 252 252 249 244 239 235 233 232 231 231 233 234 237 240 242 244 244 242 240 237 236 236 236 236 237 237 236 234 232 229 226 224 223 223 223 225 227 228 230 232 232 230 228 226 226 228 229 230 230 229 228 227 224 222 219 217 216 216 217 219 221 222 223 223 224 224 224 225 225 226 226 226 226 228 230 233 237 243 249 255 260 263 265
236 240 244 249 251 250 247 242 238 234 233 231 230 229 229 231 233 236 238 241 242 241 239 236 235 234 234 234 234 233 233 231 229 226 223 222 220 220 221 224 227 229 230 230 229 228 227 227 227 228 228 228 229 228 226 224 221 218 215 214 214 214 216 217 219 220 220 221 221 222 222 222 222 223 224 226 229 233 238 245 251 257 261 264 265 265
233 235 239 243 247 249 248 244 240 238 237 235 232 229 227 227 228 230 231 233 235 237 236 235 233 232 231 231 230 230 230 229 227 225 222 220 218 217 217 220 223 225 227 228 229 229 229 230 230 229 228 228 229 230 229 226 222 218 216 215 214 214 215 215 216 217 217 218 218 219 219 220 220 222 225 229 234 241 248 255 260 263 265 266 266 265
232 232 234 237 242 245 246 243 240 238 239 240 237 232 228 226 226 226 226 227 227 228 228 228 227 226 226 226 226 226 226 225 224 223 221 219 217 215 214 215 218 221 223 225 227 229 230 231 232 232 232 231 231 231 230 228 224 220 217 215 214 214 214 214 214 214 215 216 216 217 218 220 222 225 230 237 244 251 257 262 266 267 267 267 265 263
232 231 231 233 236 240 243 242 238 235 236 240 241 238 232 228 225 224 224 223 223 222 222 221 219 218 217 217 218 219 220 221 221 221 220 219 217 215 213 213 214 216 219 221 224 227 229 230 231 232 234 235 233 231 228 226 223 220 217 214 213 213 213 213 213 213 214 215 216 218 221 224 228 233 241 248 255 259 262 265 266 267 266 265 263 261
233 232 230 230 232 235 238 239 237 233 231 235 239 241 238 232 227 223 221 221 221 221 219 217 214 212 210 209 208 209 210 212 214 216 217 217 217 216 214 213 212 212 214 217 220 222 225 226 228 230 233 234 233 230 226 222 219 216 214 213 213 213 213 213 213 214 215 216 218 221 226 231 237 244 250 256 260 263 264 264 264 264 264 264 263 262
234 232 231 230 230 231 234 236 236 233 230 229 233 238 240 237 232 225 220 218 219 220 219 216 213 210 208 206 204 202 200 201 203 206 209 212 213 213 212 211 211 210 211 212 214 217 219 221 223 225 228 229 228 225 221 217 214 212 211 211 212 212 213 213 214 215 217 220 223 227 233 240 246 252 256 259 261 262 263 263 263 263 263 263 264 264
235 234 232 230 229 229 230 232 233 233 231 229 230 233 236 238 235 230 223 218 217 218 218 217 214 210 207 205 203 201 199 196 194 195 198 202 204 205 206 206 207 207 207 208 209 212 214 215 217 220 222 223 222 219 215 213 210 209 209 210 211 211 212 214 216 218 221 226 231 236 242 247 251 255 257 259 259 260 261 262 262 263 264 264 264 264
236 235 233 231 229 228 227 228 229 231 231 231 230 231 232 234 235 233 229 224 221 219 218 218 215 212 209 206 203 201 200 198 196 193 192 193 195 196 198 199 199 200 201 203 205 208 210 212 213 215 215 216 215 213 211 210 209 208 209 211 212 213 215 218 221 225 230 235 240 245 248 251 254 255 256 257 258 259 261 262 263 264 264 264 264 264
237 235 233 232 230 227 225 225 226 227 229 230 231 231 231 231 232 232 231 228 226 223 221 219 217 214 211 208 205 201 199 199 198 197 194 192 191 191 191 192 192 193 195 198 201 206 209 211 212 211 211 210 210 209 209 209 209 210 212 214 216 219 222 226 230 234 239 243 247 249 251 253 254 254 255 256 258 260 261 263 264 264 264 264 264 264
238 236 234 232 230 228 226 224 224 224 226 228 229 230 230 230 230 230 230 229 229 227 224 222 219 216 213 210 206 203 201 200 199 199 197 196 194 192 192 191 191 191 192 195 199 203 206 210 211 210 209 209 208 209 209 210 212 214 216 220 223 227 231 235 238 242 245 247 249 251 252 252 253 254 256 257 259 261 262 263 263 264 264 264 264 264
238 236 234 232 230 228 227 224 223 223 224 225 227 228 229 229 230 230 229 228 228 229 227 225 222 219 215 211 208 205 203 202 200 199 199 198 197 197 196 195 195 195 196 198 200 203 206 208 210 211 211 211 211 212 213 215 217 220 223 226 230 234 238 241 243 245 247 248 250 251 252 253 254 256 257 259 260 261 262 263 264 265 265 265 266 266
238 237 235 233 231 229 227 225 224 223 223 224 225 226 227 228 229 229 229 228 228 229 229 227 225 222 218 214 210 207 206 204 203 202 201 202 201 200 200 199 199 200 202 204 206 209 211 212 213 214 215 216 217 219 220 222 224 227 230 233 235 238 241 243 244 246 247 249 250 252 253 255 256 258 259 260 261 261 262 264 265 266 267 267 267 268
238 237 235 233 231 229 228 226 225 224 224 224 225 226 226 227 227 227 227 227 228 229 229 228 227 225 223 219 216 212 209 207 205 204 205 206 206 206 205 205 204 205 206 208 210 213 216 219 220 221 221 222 224 225 227 228 230 232 234 236 238 239 241 243 244 246 248 250 252 254 255 257 258 259 260 261 262 263 264 265 265 266 267 268 268 269
238 237 236 234 232 230 228 227 226 225 225 225 225 226 226 226 226 226 226 226 226 227 228 228 228 227 225 223 221 218 215 212 210 208 208 209 210 210 211 211 211 211 211 212 213 215 218 221 223 225 226 227 228 229 230 232 233 234 236 238 239 240 242 244 245 247 248 250 253 254 256 257 259 260 261 262 263 264 265 266 266 267 267 268 269 269
237 237 236 234 233 231 229 228 227 226 225 225 225 226 226 226 226 226 225 225 225 225 226 226 226 225 225 224 223 222 220 218 215 214 213 212 213 214 215 215 216 215 215 215 216 217 219 221 223 224 225 226 228 230 231 233 234 236 237 239 240 241 243 245 246 247 248 250 252 254 255 257 258 260 261 263 264 264 265 266 266 267 267 268 269 269
Height
3054 3056 3057 3059 3060 3062 3064 3067 3070 3072 3073 3076 3078 3079 3080 3082 3083 3083 3084 3085 3086 3087 3089 3091 3092 3094 3096 3097 3099 3101 3102 3104 3106 3107 3109 3110 3112 3113 3115 3116 3117 3118 3119 3120 3121 3122 3123 3124 3125 3127 3128 3129 3130 3132 3133 3134 3135 3137 3137 3138 3139 3139 3139 3139 3139 3140 3141 3142 3143 3145 3147 3148 3149 3150 3151 3152 3152 3153 3153 3154 3155 3156 3156 3157 3157 3157
3052 3053 3055 3056 3057 3059 3061 3064 3066 3068 3070 3073 3075 3076 3077 3078 3079 3080 3081 3081 3082 3084 3086 3087 3089 3091 3092 3094 3096 3097 3099 3101 3102 3104 3106 3107 3109 3110 3112 3112 3114 3115 3116 3117 3119 3120 3121 3122 3122 3124 3126 3127 3127 3128 3129 3131 3132 3134 3136 3136 3137 3137 3137 3137 3137 3138 3138 3139 3141 3142 3143 3145 3146 3147 3148 3148 3149 3150 3151 3152 3153 3153 3154 3154 3154 3154
3050 3052 3052 3053 3054 3056 3057 3060 3063 3065 3067 3070 3072 3074 3075 3076 3076 3077 3078 3079 3080 3081 3082 3084 3086 3088 3089 3091 3092 3094 3096 3097 3099 3101 3103 3105 3106 3107 3108 3110 3111 3112 3113 3115 3116 3117 3118 3119 3120 3122 3123 3123 3124 3125 3126 3128 3130 3132 3132 3133 3134 3135 3136 3135 3135 3135 3136 3137 3138 3139 3140 3141 3142 3144 3145 3147 3147 3148 3149 3150 3150 3151 3152 3152 3152 3152
3047 3049 3050 3051 3052 3053 3055 3057 3060 3062 3065 3068 3071 3072 3072 3073 3073 3074 3076 3077 3078 3079 3080 3081 3083 3085 3087 3088 3089 3091 3092 3094 3096 3098 3100 3102 3103 3105 3106 3107 3108 3109 3110 3112 3113 3114 3115 3117 3118 3119 3120 3120 3121 3122 3124 3126 3128 3128 3129 3130 3131 3133 3134 3133 3133 3133 3133 3134 3135 3137 3137 3139 3141 3142 3143 3144 3145 3146 3146 3147 3147 3148 3149 3149 3149 3149
3044 3046 3048 3049 3050 3051 3052 3055 3057 3060 3062 3066 3068 3069 3069 3069 3070 3072 3074 3075 3076 3076 3077 3079 3080 3082 3084 3085 3087 3088 3090 3091 3093 3095 3097 3099 3101 3102 3103 3104 3105 3106 3107 3108 3110 3111 3112 3114 3115 3116 3116 3117 3118 3119 3121 3122 3124 3124 3125 3127 3129 3131 3131 3131 3131 3132 3132 3133 3134 3135 3136 3138 3139 3140 3141 3142 3142 3143 3144 3144 3145 3146 3147 3147 3147 3146
3042 3043 3045 3047 3048 3049 3051 3052 3055 3057 3060 3062 3064 3064 3065 3065 3067 3068 3070 3071 3072 3073 3075 3076 3077 3079 3081 3082 3084 3085 3087 3088 3090 3092 3094 3096 3098 3099 3101 3102 3103 3104 3105 3106 3107 3108 3110 3111 3112 3112 3113 3114 3115 3116 3118 3119 3120 3121 3122 3124 3126 3128 3128 3128 3129 3130 3130 3131 3132 3134 3135 3136 3137 3137 3138 3139 3139 3140 3141 3142 3143 3143 3144 3144 3144 3144
3040 3041 3043 3044 3045 3047 3048 3050 3052 3054 3056 3058 3060 3060 3061 3061 3062 3064 3065 3066 3067 3069 3071 3073 3074 3076 3077 3079 3081 3082 3084 3086 3088 3090 3092 3094 3095 3097 3098 3099 3100 3101 3102 3103 3104 3106 3107 3107 3108 3109 3110 3111 3112 3113 3115 3116 3117 3118 3119 3121 3123 3125 3126 3126 3127 3127 3128 3129 3130 3131 3132 3133 3134 3135 3135 3136 3137 3137 3138 3139 3140 3140 3141 3141 3141 3141
3037 3039 3040 3042 3043 3044 3045 3047 3049 3051 3052 3054 3056 3057 3058 3058 3059 3060 3061 3062 3063 3065 3067 3069 3071 3072 3074 3076 3078 3080 3082 3084 3086 3088 3089 3091 3093 3094 3095 3096 3097 3098 3100 3101 3102 3103 3104 3104 3105 3106 3107 3108 3109 3111 3112 3113 3114 3116 3117 3118 3120 3122 3123 3124 3124 3125 3126 3127 3128 3129 3130 3130 3131 3132 3132 3133 3134 3134 3135 3136 3137 3137 3137 3138 3138 3138
3034 3036 3037 3039 3040 3042 3043 3045 3046 3048 3050 3051 3052 3054 3055 3056 3057 3058 3059 3060 3061 3062 3063 3065 3067 3068 3070 3073 3075 3077 3079 3081 3083 3085 3087 3088 3090 3092 3093 3094 3095 3096 3097 3098 3099 3100 3101 3102 3102 3103 3104 3106 3107 3108 3109 3110 3112 3113 3114 3116 3118 3120 3121 3122 3122 3123 3124 3125 3126 3127 3127 3128 3129 3130 3130 3131 3131 3132 3132 3133 3134 3134 3135 3135 3135 3135
3032 3033 3034 3036 3037 3039 3040 3042 3044 3046 3047 3048 3049 3051 3052 3053 3054 3056 3057 3057 3059 3060 3061 3062 3063 3065 3067 3070 3072 3074 3076 3078 3080 3082 3083 3085 3087 3088 3090 3092 3092 3094 3094 3095 3096 3097 3098 3099 3100 3101 3102 3103 3104 3106 3107 3108 3109 3110 3111 3112 3114 3117 3118 3119 3120 3120 3121 3122 3123 3124 3125 3126 3127 3127 3128 3128 3128 3129 3129 3130 3131 3131 3132 3132 3132 3132
3028 3030 3032 3033 3034 3035 3037 3038 3040 3042 3044 3046 3047 3047 3048 3049 3051 3052 3054 3054 3056 3058 3059 3060 3061 3062 3064 3067 3069 3071 3073 3075 3077 3079 3080 3082 3083 3085 3087 3088 3090 3091 3092 3092 3093 3094 3095 3096 3097 3099 3100 3101 3102 3103 3104 3105 3107 3107 3109 3110 3111 3113 3115 3116 3117 3117 3118 3119 3120 3121 3122 3123 3124 3124 3125 3125 3126 3126 3127 3127 3128 3128 3129 3129 3129 3129
3025 3027 3028 3030 3031 3032 3033 3034 3036 3038 3040 3042 3043 3043 3044 3044 3045 3047 3050 3051 3053 3055 3057 3057 3059 3060 3062 3064 3066 3068 3070 3072 3074 3076 3077 3078 3080 3081 3083 3084 3086 3087 3089 3090 3091 3091 3092 3093 3095 3096 3097 3098 3099 3101 3102 3103 3104 3105 3106 3107 3108 3110 3111 3112 3113 3114 3116 3117 3118 3118 3119 3120 3121 3121 3122 3122 3123 3124 3124 3125 3125 3126 3126 3126 3127 3127
3021 3023 3025 3026 3028 3029 3030 3031 3032 3034 3035 3036 3037 3037 3038 3040 3041 3043 3045 3047 3049 3051 3053 3055 3056 3057 3059 3061 3062 3065 3067 3068 3070 3072 3074 3075 3077 3078 3079 3081 3082 3083 3085 3086 3087 3088 3089 3091 3092 3093 3094 3095 3096 3097 3099 3100 3101 3103 3104 3105 3106 3107 3108 3110 3111 3112 3113 3114 3115 3116 3116 3117 3117 3118 3119 3120 3120 3121 3122 3122 3122 3123 3123 3123 3124 3125
3018 3019 3021 3022 3024 3025 3026 3027 3029 3030 3030 3031 3032 3033 3035 3037 3038 3039 3041 3043 3045 3047 3048 3050 3052 3053 3055 3057 3059 3061 3063 3065 3067 3068 3070 3072 3073 3075 3076 3078 3079 3080 3081 3082 3083 3084 3086 3087 3089 3090 3091 3092 3093 3095 3097 3098 3099 3101 3102 3103 3104 3105 3106 3107 3108 3109 3110 3111 3112 3112 3113 3114 3115 3115 3116 3117 3117 3118 3118 3119 3120 3120 3121 3122 3122 3122
3015 3016 3017 3018 3020 3021 3023 3024 3025 3026 3027 3028 3030 3031 3033 3034 3035 3036 3037 3039 3040 3042 3044 3045 3047 3048 3051 3053 3055 3057 3059 3061 3063 3064 3066 3068 3070 3072 3073 3075 3076 3077 3078 3079 3080 3081 3083 3084 3085 3086 3088 3089 3091 3092 3094 3096 3097 3098 3099 3100 3101 3102 3103 3104 3105 3107 3107 3108 3109 3110 3111 3112 3112 3113 3114 3114 3114 3115 3116 3116 3117 3118 3119 3119 3120 3120
3012 3013 3014 3014 3016 3018 3020 3022 3023 3024 3025 3026 3027 3028 3029 3030 3031 3032 3034 3035 3037 3038 3040 3040 3042 3044 3046 3048 3051 3054 3056 3057 3059 3061 3062 3064 3067 3068 3070 3072 3073 3074 3075 3076 3077 3078 3080 3081 3082 3083 3085 3086 3088 3089 3091 3092 3094 3095 3097 3097 3098 3099 3101 3102 3102 3103 3104 3105 3106 3107 3108 3109 3109 3110 3111 3111 3111 3112 3113 3114 3115 3116 3116 3117 3117 3117
3010 3010 3011 3012 3013 3014 3016 3018 3020 3021 3022 3023 3023 3024 3024 3025 3027 3028 3030 3032 3033 3034 3035 3035 3037 3039 3041 3044 3048 3050 3052 3054 3055 3057 3059 3061 3063 3065 3067 3069 3070 3071 3072 3073 3074 3076 3077 3078 3080 3082 3082 3083 3085 3087 3088 3090 3091 3092 3093 3094 3095 3097 3097 3098 3099 3100 3101 3102 3103 3104 3105 3105 3106 3106 3107 3107 3108 3110 3111 3112 3112 3113 3113 3114 3114 3115
3007 3007 3008 3009 3010 3011 3013 3015 3016 3017 3019 3019 3020 3021 3022 3022 3024 3025 3027 3028 3029 3029 3030 3031 3033 3035 3037 3041 3044 3047 3049 3051 3052 3054 3056 3057 3059 3061 3064 3065 3067 3068 3069 3070 3072 3073 3074 3076 3077 3079 3081 3082 3083 3084 3085 3087 3088 3089 3090 3091 3092 3093 3094 3095 3096 3097 3098 3099 3099 3100 3101 3101 3102 3103 3103 3105 3106 3107 3108 3109 3109 3110 3111 3111 3112 3112
3004 3004 3005 3006 3007 3008 3010 3011 3012 3014 3015 3016 3017 3018 3019 3020 3021 3022 3023 3024 3025 3026 3027 3028 3030 3032 3035 3038 3041 3044 3047 3049 3049 3051 3052 3054 3056 3058 3060 3062 3063 3064 3066 3067 3069 3070 3072 3073 3075 3077 3078 3080 3081 3082 3083 3084 3085 3086 3087 3088 3089 3089 3090 3092 3092 3093 3094 3095 3096 3097 3097 3098 3099 3100 3101 3102 3103 3104 3105 3106 3107 3107 3108 3109 3109 3110
3001 3001 3002 3003 3004 3005 3006 3007 3008 3010 3012 3013 3014 3015 3016 3016 3017 3018 3019 3021 3022 3023 3024 3025 3027 3029 3032 3036 3039 3042 3045 3045 3046 3047 3048 3050 3052 3054 3056 3058 3059 3061 3062 3064 3066 3067 3069 3070 3072 3074 3076 3077 3078 3079 3080 3081 3082 3083 3084 3085 3085 3086 3087 3088 3089 3090 3091 3092 3092 3093 3094 3095 3096 3097 3098 3099 3101 3102 3102 3103 3104 3105 3106 3106 3107 3107
2997 2998 2998 2999 3000 3002 3002 3003 3005 3007 3009 3010 3012 3012 3012 3013 3014 3015 3016 3017 3019 3020 3021 3022 3024 3026 3030 3033 3036 3038 3041 3042 3042 3043 3045 3047 3048 3050 3052 3054 3056 3057 3059 3061 3062 3064 3066 3067 3068 3070 3072 3074 3076 3076 3077 3078 3079 3080 3081 3082 3082 3083 3083 3084 3085 3086 3087 3088 3089 3090 3091 3092 3093 3094 3096 3097 3098 3099 3100 3101 3102 3102 3102 3103 3103 3104
2994 2995 2995 2996 2997 2998 2999 3000 3002 3004 3005 3007 3008 3008 3009 3010 3011 3011 3012 3014 3016 3017 3018 3019 3021 3024 3027 3029 3031 3034 3037 3038 3039 3039 3042 3043 3045 3046 3048 3051 3052 3054 3055 3057 3059 3061 3062 3064 3065 3067 3069 3071 3072 3073 3074 3075 3076 3077 3077 3078 3078 3079 3080 3080 3082 3082 3083 3084 3085 3087 3088 3089 3090 3092 3092 3094 3095 3096 3097 3097 3098 3098 3099 3099 3100 3100
2991 2992 2992 2993 2993 2994 2995 2997 2998 3000 3001 3002 3003 3004 3005 3007 3007 3008 3010 3011 3012 3014 3016 3017 3019 3021 3023 3024 3026 3029 3032 3034 3035 3036 3038 3039 3040 3042 3045 3047 3049 3051 3052 3053 3055 3057 3059 3060 3062 3064 3065 3067 3068 3070 3071 3072 3072 3072 3073 3073 3074 3075 3076 3077 3078 3079 3080 3082 3083 3084 3085 3086 3087 3088 3090 3091 3092 3092 3093 3093 3094 3095 3095 3096 3096 3097
2988 2988 2989 2990 2991 2991 2992 2993 2995 2996 2997 2998 3000 3001 3002 3003 3004 3005 3007 3008 3009 3010 3012 3014 3017 3018 3019 3020 3022 3025 3027 3029 3031 3033 3034 3034 3036 3038 3041 3043 3045 3047 3048 3051 3052 3054 3055 3057 3058 3060 3062 3063 3064 3065 3066 3067 3068 3068 3069 3070 3070 3071 3072 3073 3075 3076 3077 3079 3081 3082 3083 3084 3085 3086 3087 3087 3088 3088 3089 3090 3090 3091 3092 3092 3093 3093
2985 2986 2987 2987 2988 2988 2988 2989 2991 2992 2993 2995 2996 2997 2999 3000 3001 3002 3002 3004 3005 3006 3007 3010 3012 3013 3014 3017 3019 3021 3022 3025 3027 3029 3029 3031 3033 3035 3037 3039 3040 3042 3045 3047 3049 3050 3051 3052 3054 3056 3057 3059 3060 3061 3062 3062 3063 3064 3065 3066 3067 3068 3069 3070 3072 3073 3075 3077 3078 3079 3080 3081 3082 3082 3083 3084 3084 3085 3086 3087 3087 3088 3089 3089 3090 3091
2982 2982 2983 2984 2985 2985 2986 2986 2987 2988 2990 2991 2992 2994 2995 2996 2997 2998 2999 3000 3001 3002 3004 3006 3007 3007 3008 3011 3014 3017 3018 3020 3022 3024 3025 3027 3029 3031 3033 3034 3036 3038 3041 3044 3046 3047 3048 3049 3050 3052 3053 3054 3055 3057 3057 3059 3060 3060 3061 3062 3063 3065 3066 3067 3069 3070 3072 3073 3075 3076 3077 3078 3078 3079 3080 3080 3081 3082 3082 3083 3084 3085 3086 3086 3087 3087
2980 2980 2981 2982 2982 2983 2983 2983 2984 2985 2986 2987 2988 2990 2991 2992 2994 2995 2995 2996 2997 2998 3000 3001 3001 3002 3004 3006 3008 3010 3012 3015 3017 3019 3021 3023 3025 3027 3028 3030 3032 3035 3038 3040 3042 3043 3045 3046 3047 3048 3049 3050 3051 3052 3054 3055 3056 3057 3058 3059 3060 3062 3063 3064 3066 3067 3069 3070 3072 3072 3074 3074 3075 3076 3076 3077 3078 3078 3079 3080 3081 3082 3082 3083 3084 3085
2977 2978 2978 2979 2980 2981 2981 2981 2982 2982 2983 2984 2985 2986 2987 2989 2990 2991 2991 2992 2994 2996 2997 2997 2997 2998 3000 3001 3003 3004 3007 3010 3012 3014 3017 3019 3021 3022 3024 3027 3029 3031 3034 3036 3037 3039 3041 3042 3043 3044 3045 3046 3047 3049 3050 3051 3052 3054 3055 3056 3057 3059 3060 3062 3063 3064 3066 3067 3068 3069 3070 3071 3072 3072 3073 3074 3075 3076 3077 3077 3078 3079 3080 3081 3082 3082
2975 2976 2976 2977 2977 2978 2979 2979 2979 2980 2980 2981 2982 2982 2983 2985 2986 2987 2987 2989 2991 2992 2993 2993 2994 2995 2996 2997 2999 3001 3003 3005 3007 3009 3012 3015 3017 3018 3020 3023 3025 3027 3029 3032 3034 3036 3037 3038 3040 3041 3042 3043 3044 3045 3046 3047 3049 3051 3052 3054 3055 3056 3057 3059 3060 3061 3062 3064 3065 3066 3067 3068 3069 3070 3070 3071 3072 3073 3074 3074 3075 3076 3077 3078 3079 3080
2974 2974 2974 2975 2976 2976 2977 2977 2977 2978 2978 2978 2979 2979 2980 2981 2982 2983 2984 2986 2988 2989 2989 2990 2991 2992 2993 2995 2996 2998 2999 3000 3002 3004 3007 3011 3012 3014 3017 3020 3021 3022 3025 3027 3030 3032 3033 3034 3036 3037 3039 3039 3040 3041 3042 3044 3045 3047 3049 3051 3052 3053 3055 3056 3057 3058 3059 3061 3062 3063 3064 3065 3066 3067 3067 3068 3069 3070 3071 3072 3073 3074 3075 3076 3077 3078
2972 2972 2972 2973 2973 2974 2975 2976 2976 2976 2976 2976 2977 2977 2977 2978 2979 2980 2981 2982 2984 2985 2985 2986 2988 2989 2991 2992 2993 2994 2994 2996 2997 3000 3003 3006 3007 3010 3013 3016 3017 3018 3021 3023 3025 3026 3028 3030 3032 3034 3035 3036 3037 3038 3039 3040 3042 3043 3045 3047 3049 3050 3052 3052 3054 3055 3056 3057 3059 3060 3061 3062 3062 3063 3064 3065 3066 3067 3068 3069 3071 3072 3073 3074 3075 3076
2970 2970 2971 2971 2972 2973 2973 2974 2974 2974 2974 2974 2974 2975 2975 2976 2976 2977 2978 2979 2980 2981 2982 2983 2985 2986 2987 2988 2989 2990 2991 2993 2995 2997 2999 3002 3004 3007 3010 3012 3013 3015 3017 3020 3021 3022 3023 3026 3028 3030 3031 3032 3034 3035 3036 3037 3038 3040 3042 3043 3045 3046 3048 3049 3051 3052 3053 3054 3055 3056 3057 3058 3059 3060 3061 3062 3063 3065 3066 3067 3068 3070 3071 3072 3073 3074
2968 2969 2969 2970 2970 2971 2972 2972 2973 2973 2973 2972 2972 2973 2973 2973 2974 2974 2975 2976 2977 2977 2979 2980 2981 2982 2984 2985 2986 2987 2989 2990 2992 2993 2996 2998 3000 3002 3005 3008 3010 3011 3013 3016 3017 3018 3020 3022 3024 3026 3027 3029 3030 3032 3033 3034 3036 3037 3038 3040 3041 3042 3044 3045 3047 3048 3049 3050 3052 3053 3054 3055 3056 3057 3058 3059 3061 3062 3064 3065 3067 3068 3069 3070 3070 3071
2967 2967 2967 2968 2969 2970 2970 2971 2971 2971 2971 2971 2971 2971 2971 2972 2972 2972 2973 2973 2974 2974 2975 2977 2977 2979 2980 2982 2983 2984 2986 2987 2989 2990 2992 2994 2996 2998 3001 3003 3005 3007 3009 3012 3013 3015 3017 3018 3020 3022 3023 3025 3027 3028 3030 3031 3033 3034 3035 3037 3037 3039 3040 3041 3043 3044 3045 3047 3048 3049 3051 3052 3053 3054 3056 3057 3059 3061 3062 3063 3065 3066 3067 3067 3068 3068
2965 2965 2965 2966 2967 2968 2969 2969 2969 2970 2970 2970 2969 2969 2970 2970 2970 2971 2971 2971 2972 2972 2972 2973 2974 2976 2977 2978 2980 2982 2983 2984 2986 2987 2989 2991 2992 2994 2997 2999 3001 3003 3006 3007 3010 3012 3014 3016 3017 3018 3019 3021 3023 3025 3027 3028 3030 3031 3033 3034 3035 3036 3037 3038 3039 3041 3042 3043 3045 3046 3047 3049 3051 3052 3054 3056 3057 3059 3060 3061 3062 3063 3064 3065 3065 3065
2963 2963 2964 2964 2965 2966 2967 2967 2968 2968 2968 2968 2968 2968 2968 2968 2969 2969 2969 2970 2970 2970 2970 2971 2972 2973 2974 2975 2977 2978 2980 2981 2982 2984 2986 2987 2989 2991 2993 2995 2997 2999 3002 3004 3006 3008 3010 3012 3014 3015 3016 3017 3019 3021 3023 3025 3027 3028 3029 3030 3031 3032 3034 3035 3036 3037 3039 3040 3042 3043 3045 3047 3049 3051 3052 3054 3055 3057 3057 3059 3060 3061 3061 3062 3062 3063
2961 2962 2962 2963 2964 2965 2966 2966 2966 2966 2966 2966 2967 2967 2967 2967 2967 2968 2968 2968 2969 2969 2969 2969 2970 2971 2972 2972 2974 2975 2977 2978 2979 2981 2982 2983 2985 2987 2989 2991 2994 2996 2999 3001 3003 3005 3007 3009 3011 3013 3014 3015 3016 3017 3019 3022 3023 3025 3025 3026 3027 3029 3031 3032 3033 3035 3037 3038 3040 3042 3043 3045 3047 3049 3050 3052 3053 3054 3055 3056 3057 3058 3058 3059 3059 3060
2959 2960 2961 2961 2962 2963 2963 2964 2964 2965 2965 2965 2965 2966 2966 2966 2967 2967 2967 2967 2968 2968 2968 2969 2969 2969 2970 2971 2972 2973 2974 2975 2977 2978 2979 2980 2982 2983 2986 2988 2991 2993 2996 2998 3000 3002 3005 3007 3008 3010 3011 3013 3014 3016 3017 3018 3019 3021 3022 3023 3024 3026 3028 3029 3031 3032 3034 3036 3038 3040 3042 3043 3045 3046 3048 3049 3050 3052 3052 3053 3054 3055 3056 3057 3057 3057
2956 2957 2958 2959 2960 2961 2962 2962 2963 2963 2964 2964 2964 2964 2965 2965 2966 2966 2967 2967 2967 2967 2968 2968 2968 2969 2969 2970 2970 2971 2972 2973 2974 2976 2977 2978 2979 2981 2982 2985 2987 2990 2993 2995 2998 3000 3002 3004 3005 3007 3008 3010 3012 3014 3015 3016 3016 3017 3019 3021 3023 3024 3026 3027 3029 3031 3033 3035 3037 3038 3040 3041 3043 3044 3046 3047 3048 3049 3050 3051 3052 3052 3053 3054 3054 3055
2953 2955 2956 2957 2958 2959 2959 2960 2961 2962 2962 2963 2963 2963 2963 2964 2964 2965 2966 2966 2967 2967 2967 2968 2968 2968 2969 2969 2970 2970 2971 2972 2973 2974 2975 2976 2977 2979 2980 2982 2984 2987 2989 2992 2995 2997 2999 3001 3003 3004 3006 3008 3010 3011 3012 3013 3014 3016 3017 3019 3021 3022 3024 3027 3028 3030 3032 3033 3035 3037 3038 3039 3041 3042 3043 3044 3046 3047 3047 3048 3049 3049 3050 3051 3052 3053
2951 2952 2953 2954 2956 2957 2958 2958 2959 2960 2961 2962 2962 2962 2962 2962 2963 2964 2965 2965 2966 2966 2967 2967 2968 2968 2969 2969 2969 2970 2970 2971 2972 2973 2974 2975 2976 2977 2979 2980 2982 2984 2987 2989 2991 2994 2996 2998 3000 3002 3004 3006 3007 3009 3010 3011 3012 3014 3016 3017 3019 3021 3023 3026 3027 3029 3030 3032 3033 3035 3036 3037 3039 3040 3041 3042 3043 3044 3045 3045 3046 3047 3047 3048 3049 3050
2949 2950 2951 2952 2953 2955 2956 2957 2957 2958 2958 2960 2961 2961 2961 2961 2962 2962 2963 2964 2965 2965 2966 2967 2967 2967 2968 2969 2969 2970 2970 2971 2971 2972 2973 2974 2975 2976 2977 2979 2981 2982 2984 2987 2989 2991 2993 2995 2997 3000 3002 3004 3006 3007 3008 3010 3012 3013 3015 3017 3018 3021 3022 3024 3025 3027 3028 3030 3031 3032 3034 3036 3037 3038 3039 3040 3041 3041 3042 3042 3043 3044 3045 3045 3046 3047
2946 2947 2948 2950 2951 2952 2954 2955 2956 2956 2957 2957 2958 2959 2960 2960 2961 2961 2962 2963 2963 2964 2965 2966 2966 2967 2967 2968 2969 2969 2970 2971 2971 2972 2972 2973 2974 2975 2977 2978 2980 2981 2983 2985 2987 2989 2991 2993 2995 2997 3000 3002 3004 3006 3007 3008 3010 3012 3014 3015 3017 3019 3020 3022 3023 3025 3027 3028 3029 3031 3032 3033 3034 3035 3036 3037 3038 3038 3039 3040 3041 3041 3042 3043 3043 3044
2944 2945 2946 2947 2948 2950 2951 2952 2953 2954 2955 2956 2956 2957 2958 2959 2960 2960 2961 2962 2962 2963 2964 2965 2965 2966 2967 2967 2968 2969 2969 2970 2971 2972 2972 2973 2974 2975 2976 2977 2979 2980 2982 2984 2985 2987 2989 2992 2994 2996 2998 3001 3003 3004 3006 3007 3009 3011 3012 3014 3016 3017 3018 3020 3022 3023 3025 3026 3027 3028 3030 3031 3032 3033 3033 3034 3035 3036 3037 3037 3038 3038 3039 3040 3041 3041
2941 2942 2943 2945 2946 2947 2948 2949 2951 2952 2953 2954 2954 2955 2956 2957 2958 2959 2959 2960 2961 2962 2963 2964 2964 2965 2966 2967 2967 2968 2969 2969 2970 2971 2972 2973 2974 2975 2976 2977 2978 2980 2981 2983 2985 2987 2988 2991 2992 2995 2997 2999 3001 3003 3004 3006 3008 3009 3011 3012 3014 3016 3017 3018 3020 3021 3022 3023 3025 3026 3027 3028 3029 3030 3031 3032 3032 3033 3034 3035 3036 3036 3037 3037 3038 3039
2939 2940 2941 2942 2943 2944 2945 2947 2948 2949 2951 2952 2952 2953 2954 2955 2956 2957 2958 2959 2960 2961 2962 2963 2963 2964 2965 2966 2967 2967 2968 2969 2970 2971 2972 2972 2974 2975 2976 2977 2978 2979 2981 2982 2984 2987 2988 2990 2992 2994 2997 2998 3000 3001 3002 3004 3006 3008 3009 3011 3012 3014 3015 3017 3018 3019 3020 3021 3022 3023 3024 3025 3026 3027 3028 3029 3030 3031 3032 3032 3033 3034 3034 3035 3036 3036
2937 2937 2938 2939 2940 2942 2943 2944 2946 2947 2948 2949 2950 2951 2952 2953 2954 2955 2956 2957 2958 2959 2960 2961 2962 2963 2964 2965 2966 2967 2967 2968 2969 2970 2971 2972 2973 2974 2976 2977 2978 2979 2981 2982 2984 2986 2988 2990 2992 2994 2996 2997 2998 3000 3001 3003 3005 3006 3008 3009 3011 3012 3013 3014 3015 3016 3017 3018 3019 3020 3021 3022 3023 3024 3025 3026 3027 3028 3029 3030 3030 3031 3032 3032 3033 3033
2934 2935 2936 2937 2938 2939 2940 2942 2943 2944 2945 2947 2948 2949 2950 2952 2952 2953 2954 2955 2957 2957 2959 2960 2961 2962 2963 2964 2965 2965 2966 2967 2968 2969 2970 2971 2972 2974 2975 2976 2977 2979 2981 2982 2983 2985 2987 2989 2991 2993 2995 2996 2997 2998 3000 3002 3003 3005 3006 3007 3009 3010 3011 3012 3013 3014 3015 3016 3017 3017 3019 3020 3021 3022 3023 3024 3025 3026 3026 3027 3028 3028 3029 3029 3030 3031
2932 2933 2933 2934 2936 2937 2938 2939 2940 2942 2943 2944 2946 2947 2948 2949 2950 2952 2952 2954 2955 2956 2957 2958 2959 2960 2962 2962 2963 2964 2965 2966 2967 2968 2969 2971 2972 2973 2974 2976 2977 2978 2980 2982 2983 2985 2986 2988 2990 2991 2992 2994 2995 2997 2998 3000 3001 3003 3004 3005 3007 3007 3008 3009 3010 3011 3012 3013 3014 3015 3016 3017 3018 3019 3020 3021 3022 3023 3024 3025 3025 3026 3026 3027 3027 3028
2930 2931 2931 2932 2933 2934 2936 2937 2938 2939 2940 2942 2943 2944 2946 2947 2948 2949 2951 2952 2953 2954 2955 2957 2958 2959 2960 2961 2962 2963 2964 2965 2966 2967 2968 2969 2971 2972 2974 2975 2976 2977 2979 2980 2982 2984 2985 2987 2988 2990 2991 2992 2993 2995 2996 2997 2999 3000 3002 3003 3004 3005 3006 3007 3008 3009 3010 3011 3012 3013 3014 3015 3016 3017 3018 3019 3019 3020 3021 3022 3023 3023 3023 3024 3024 3025
2928 2928 2929 2930 2931 2932 2933 2935 2936 2937 2938 2939 2941 2942 2943 2944 2946 2947 2948 2950 2951 2952 2953 2955 2956 2957 2958 2959 2961 2962 2963 2964 2965 2966 2967 2968 2970 2971 2972 2974 2975 2977 2978 2979 2981 2982 2984 2985 2987 2988 2989 2991 2992 2993 2994 2996 2997 2998 3000 3001 3002 3003 3004 3005 3006 3007 3008 3009 3010 3011 3012 3012 3013 3014 3016 3016 3017 3018 3019 3019 3020 3020 3021 3021 3022 3022